Regional Weather Roundup
Issued by NWS

Home | Current Version | Previous Version | Graphics & Text | Print | Product List | Glossary On
Versions: 1 2 3 4 5 6 7 8 9 10 11 12 13 14 15 16 17 18 19 20 21 22 23 24 25 26 27 28 29 30 31 32 33 34 35 36 37 38 39 40 41 42 43 44 45 46 47 48 49 50
000
ASUS45 KABQ 271801
RWRNM
NEW MEXICO REGIONAL WEATHER ROUNDUP
NATIONAL WEATHER SERVICE ALBUQUERQUE NM
1100 AM MST MON FEB 27 2017

NOTE: "FAIR" MEANS FEW OR NO CLOUDS BELOW 12,000 FEET AGL WITH NO
       SIGNIFICANT WEATHER OR OBSTRUCTIONS TO VISION.

      THIS PRODUCT IS RELEASED AS TWO VERSIONS.  ONE VERSION NEAR
      THE TOP OF THE HOUR CONTAINING PRELIMINARY DATA FROM ALBUQUERQUE
      AND OTHER STATIONS.  A FINAL VERSION WITH ADDITIONAL DATA IS
      ISSUED ABOUT 10 MINUTES AFTER THE HOUR.

NMZ501-503-504-510>518-271900-
NORTHWEST PLATEAU/NORTHCENTRAL MOUNTAINS

CITY           SKY/WX    TMP DP  RH WIND       PRES   REMARKS
FARMINGTON     PTSUNNY   46  20  35 W15G22    29.87R
6HR MIN TEMP:  32; 6HR MAX TEMP:  46;

LOS ALAMOS     FAIR      39  22  50 S18G24    29.93S WCI  30
SANTA FE       FAIR      46  21  37 W20G26    29.94S
6HR MIN TEMP:  26; 6HR MAX TEMP:  46;

TAOS           CLOUDY    37  16  41 SW17G24   29.91S WCI  28
ANGEL FIRE     FAIR      33  17  53 SW15G29   29.89F WCI  22

$$
NMZ402-403-502-505>509-271900-
WESTCENTRAL MOUNTAINS/SOUTHWEST MOUNTAINS

CITY           SKY/WX    TMP DP  RH WIND       PRES   REMARKS
GALLUP         PTSUNNY   40  23  50 SW24G33   29.95S WCI  29
6HR MIN TEMP:  34; 6HR MAX TEMP:  41;

GRANTS         FAIR      46  21  36 S12       29.97R
SILVER CITY    FAIR      51  23  33 W18G24    30.06R

$$
NMZ407-409-411-412-271900-
SOUTHERN DESERTS

CITY           SKY/WX    TMP DP  RH WIND       PRES   REMARKS
DEMING         FAIR      57  28  33 W21G29    30.04S
6HR MIN TEMP:  30; 6HR MAX TEMP:  57;

LAS CRUCES     FAIR      56  25  29 SW14      30.05S
HOLLOMAN AFB   FAIR      60  21  22 S20       30.04F
ALAMOGORDO     FAIR      59  25  27 SE17      30.03F
T OR C         FAIR      55  20  25 S9        29.97F
6HR MIN TEMP:  32; 6HR MAX TEMP:  55;


$$
NMZ519>523-271900-
CENTRAL VALLEYS/CENTRAL HIGHLANDS

CITY           SKY/WX    TMP DP  RH WIND       PRES   REMARKS
ALBUQUERQUE    FAIR      47  23  38 S14       29.97S
6HR MIN TEMP:  31; 6HR MAX TEMP:  47;

DOUBLE EAGLE   PTSUNNY   46  23  39 SW15G22   29.96S
MORIARTY ARPT  FAIR      53  19  26 SW13G24   29.94F
6HR MIN TEMP:  20; 6HR MAX TEMP:  53;

CLINES CORNERS FAIR      46  19  34 SW31G39   29.92F
6HR MIN TEMP:  24; 6HR MAX TEMP:  46;

BELEN          FAIR      51  22  31 SE12      29.95F
6HR MIN TEMP:  24; 6HR MAX TEMP:  51;

SOCORRO        FAIR      55  22  28 S16G23    29.96F
6HR MIN TEMP:  27; 6HR MAX TEMP:  55;


$$
NMZ524>526-539-540-271900-
SOUTHCENTRAL MOUNTAINS

CITY           SKY/WX    TMP DP  RH WIND       PRES   REMARKS
RUIDOSO        NOT AVBL

$$
NMZ527>531-271900-
NORTHEAST HIGHLANDS/NORTHEAST PLAINS

CITY           SKY/WX    TMP DP  RH WIND       PRES   REMARKS
LAS VEGAS      FAIR      45  16  31 SW30G46   29.86F
6HR MIN TEMP:  29; 6HR MAX TEMP:  46;

RATON          FAIR      51  13  21 SW20G32   29.77
6HR MIN TEMP:  18; 6HR MAX TEMP:  51;

CLAYTON        FAIR      56  15  20 SW21G31   29.79F
6HR MIN TEMP:  26; 6HR MAX TEMP:  56;


$$
NMZ532>537-271900-
EASTCENTRAL PLAINS

CITY           SKY/WX    TMP DP  RH WIND       PRES   REMARKS
TUCUMCARI      FAIR      62  21  20 W31G47    29.84F
6HR MIN TEMP:  31; 6HR MAX TEMP:  62;

CANNON AFB     SUNNY     61  22  22 W18G29    29.89F
6HR MIN TEMP:  31; 6HR MAX TEMP:  61;

CLOVIS AIRPORT FAIR      61  27  27 W16G24    29.90F

$$
NMZ028-029-538-271900-
SOUTHEAST PLAINS

CITY           SKY/WX    TMP DP  RH WIND       PRES   REMARKS
ROSWELL        FAIR      64  24  21 SE8         N/A
6HR MIN TEMP:  27; 6HR MAX TEMP:  64;

ARTESIA        FAIR      66  25  20 SW29G36   29.91F
CARLSBAD       FAIR      69  20  15 W10G17    29.92F
6HR MIN TEMP:  33; 6HR MAX TEMP:  69;

HOBBS          SUNNY     68  19  15 SW20      29.95F


$$




USA.gov is the U.S. government's official web portal to all federal, state and local government web resources and services.